RH
88 94 92 82 80 88 92 94 74 71 72 76 73 74 80 73 69 79 77 81 74 76 86 91 95 91 81 29 15 17 59 84 88 96 95 85 81 79
95 86 91 97 97 93 92 92 94 87 81 89 86 95 96 96 81 82 87 82 77 88 88 95 94 88 82 35 44 69 88 86 96 95 91 84 75 78
97 97 86 93 97 95 92 94 96 93 92 94 98 91 81 79 83 94 83 84 94 85 81 81 82 89 91 71 86 93 89 95 89 82 88 70 70 83
96 96 97 96 94 95 96 96 95 95 95 67 65 66 78 88 98 97 97 100 89 82 78 76 81 88 91 88 91 100 92 81 76 81 67 67 82 70
94 95 96 96 96 95 97 94 96 93 82 55 52 71 92 87 83 92 95 99 97 90 90 90 87 89 96 98 100 91 76 78 80 66 64 75 72 75
93 95 94 95 96 97 94 95 95 93 72 52 46 76 86 80 77 95 97 99 98 99 98 94 92 84 72 66 66 72 73 85 74 60 69 77 77 60
96 86 82 89 92 96 94 94 93 77 60 43 35 70 64 68 66 74 86 89 96 98 88 86 79 69 67 69 84 87 89 75 60 67 74 76 60 43
84 86 96 97 95 96 95 86 83 67 42 41 39 72 65 67 56 43 90 96 85 88 79 80 76 75 69 79 87 89 79 63 70 68 71 57 46 26
90 77 72 89 95 88 72 67 62 52 36 30 38 65 69 78 55 62 99 89 88 81 91 100 93 72 82 93 94 82 66 68 71 67 62 51 31 23
77 82 84 86 82 78 72 67 56 40 33 28 68 72 70 69 32 48 96 97 94 65 93 98 87 86 87 90 87 73 66 69 68 65 57 41 26 17
76 91 90 92 90 90 78 70 60 46 39 33 31 46 40 34 35 38 58 87 81 57 96 99 97 92 93 90 80 69 70 73 71 64 54 27 19 17
90 81 81 78 89 91 87 76 62 51 41 37 34 31 28 30 33 40 44 55 53 71 100 95 100 96 91 89 78 71 77 80 76 71 30 22 18 20
92 72 73 62 74 89 86 76 64 54 46 39 34 32 30 32 35 37 32 40 36 73 97 97 93 77 90 87 83 80 84 83 72 38 21 18 24 23
88 76 70 85 96 100 84 79 71 58 51 42 38 33 35 33 31 28 26 28 36 66 82 77 81 92 89 77 86 89 78 80 42 32 20 23 27 28
97 84 98 96 96 99 92 82 70 61 54 39 40 37 35 28 27 24 25 34 44 48 61 79 89 86 82 82 96 92 89 51 38 29 21 26 27 25
99 98 100 97 98 96 87 68 68 59 50 47 43 40 36 34 33 34 33 31 40 43 68 88 90 85 82 90 96 87 62 42 35 24 27 27 24 24
76 86 98 96 92 85 69 56 59 58 51 47 46 41 38 44 46 39 32 33 40 45 82 93 84 88 87 96 88 72 46 32 24 27 31 25 22 30
92 91 98 97 87 78 71 62 65 59 53 56 48 38 45 52 40 34 38 44 48 57 93 80 92 85 96 91 78 48 33 28 28 26 22 23 28 33
92 98 98 97 87 92 91 78 66 65 55 52 48 52 52 42 38 40 42 44 72 80 77 94 86 89 95 86 53 41 30 32 31 24 23 23 29 24
92 99 74 74 87 96 90 78 69 59 58 53 54 48 44 46 49 47 48 77 93 81 90 92 91 98 90 68 47 34 36 33 29 29 32 35 28 20
96 96 84 66 65 86 87 72 62 61 66 72 60 53 51 50 48 49 66 74 90 90 93 97 100 96 90 61 38 39 38 33 29 27 30 30 25 18
99 98 84 75 83 80 79 79 83 73 70 65 56 52 49 48 51 54 72 75 95 89 92 97 98 96 85 53 40 39 36 30 28 27 30 27 16 9
99 95 79 92 100 95 85 91 94 83 68 57 54 53 54 57 52 49 64 85 92 95 96 99 97 95 72 49 46 42 40 35 29 31 32 23 12 11
Wind_Speed
64 61 58 56 57 57 53 50 51 52 50 51 52 49 50 51 47 46 45 45 43 41 43 41 43 48 48 45 46 49 50 48 46 52 57 60 61 63
70 65 58 61 68 62 60 59 55 50 50 46 50 49 49 47 48 50 51 49 46 46 45 44 44 47 47 46 47 48 47 46 49 54 58 60 64 64
65 62 69 65 54 56 57 55 51 48 49 50 51 49 46 49 53 52 49 41 42 42 40 38 41 46 46 44 43 45 47 50 51 54 58 61 62 54
60 75 57 61 54 51 54 47 46 44 39 29 27 26 29 42 48 49 44 41 39 38 35 36 38 37 38 40 42 45 48 53 52 56 61 61 50 48
54 51 55 45 39 37 42 39 42 30 24 23 20 23 28 28 29 33 32 37 37 34 34 36 36 33 35 39 41 44 50 51 53 58 57 48 45 49
59 53 56 47 42 47 29 36 29 24 21 16 20 20 23 23 25 27 30 31 33 32 33 33 33 32 32 35 41 46 49 50 54 53 49 45 47 47
54 51 53 53 58 54 46 38 34 20 19 22 25 30 24 25 27 28 27 28 29 31 33 29 25 27 35 37 42 46 48 49 48 46 46 44 45 47
63 56 52 59 58 58 47 43 28 25 28 28 37 35 29 26 27 28 29 28 23 24 23 26 34 33 33 39 43 45 44 44 41 43 43 40 44 49
66 66 66 63 65 54 47 37 34 35 38 35 37 39 39 35 32 30 32 31 31 31 36 35 36 38 42 40 42 41 40 39 39 40 39 41 46 50
64 68 66 62 56 50 45 42 41 42 42 42 41 40 40 36 33 34 38 38 39 37 37 40 42 42 42 43 43 39 37 37 36 38 38 43 47 49
65 62 62 62 56 52 52 50 48 47 47 46 42 41 40 40 37 38 41 42 44 40 39 41 42 43 43 43 41 37 36 35 37 38 41 43 45 48
67 65 59 59 59 57 55 51 51 50 49 47 46 42 41 40 40 42 43 44 42 38 40 42 41 43 43 41 37 35 35 37 37 39 42 42 43 49
72 69 61 60 61 58 56 52 50 51 48 47 44 42 43 42 42 42 41 40 38 38 41 43 44 45 43 38 35 33 34 36 37 39 42 42 48 53
61 63 62 62 60 57 57 56 53 51 50 49 48 46 45 43 43 42 39 37 39 39 45 46 40 40 37 37 32 33 35 35 38 42 41 45 51 59
60 59 65 66 62 61 58 56 55 54 53 49 48 47 43 40 41 40 38 39 37 38 38 36 36 35 35 31 30 32 34 34 39 42 43 47 52 58
64 63 66 68 65 63 60 55 56 54 52 50 48 46 43 43 44 40 40 41 39 38 37 35 34 34 30 27 30 32 30 34 38 39 44 49 55 61
65 68 70 68 64 61 58 57 52 50 48 49 48 48 47 45 42 43 43 42 39 36 34 32 34 30 26 28 29 30 31 34 33 38 44 51 56 62
68 72 73 69 64 58 56 53 50 49 50 51 49 48 48 47 46 46 45 39 37 35 32 32 30 27 27 26 26 26 29 29 33 37 43 51 57 65
70 67 61 63 63 61 60 55 53 56 54 55 54 54 51 49 48 46 42 37 30 34 33 31 27 26 27 23 23 24 24 28 33 38 44 50 58 65
69 71 64 60 58 59 58 57 58 57 58 56 55 52 51 50 46 42 38 33 30 27 29 28 27 27 22 21 21 21 23 28 33 38 44 52 58 65
62 66 69 62 60 61 62 60 57 58 59 57 56 55 53 51 47 42 36 34 32 30 30 28 28 23 19 20 18 20 24 29 32 37 42 50 55 62
68 73 67 63 60 58 58 60 61 57 56 57 57 56 52 50 44 39 33 33 34 31 30 31 27 21 18 20 19 21 24 30 34 39 45 50 54 62
76 68 73 69 66 63 62 62 61 58 57 54 51 51 50 44 39 36 35 38 34 32 32 32 27 20 19 17 17 21 25 31 37 42 47 50 58 66
Wind_Direction
225 227 231 236 237 241 239 242 245 250 251 256 255 256 257 258 265 266 271 276 283 288 294 297 295 297 290 290 296 299 305 311 316 318 321 321 321 321
227 228 227 235 238 239 242 245 244 247 253 253 253 262 259 257 262 268 274 273 276 287 292 290 293 294 288 292 296 301 310 314 317 318 321 321 322 320
232 233 230 236 240 236 240 241 244 242 244 252 253 251 252 255 261 263 270 277 284 284 287 288 294 293 291 294 302 308 316 316 318 320 320 321 321 321
219 223 227 230 237 235 233 239 241 236 243 225 230 248 256 253 256 261 267 278 276 280 281 284 293 297 295 300 305 311 313 312 317 320 322 319 321 317
230 227 225 225 230 242 227 227 231 211 205 225 240 250 253 252 253 259 265 267 272 277 278 286 287 292 300 304 307 309 308 313 315 320 319 319 316 318
221 231 235 237 230 225 221 222 231 228 207 219 242 245 236 230 245 249 257 264 271 274 277 281 287 291 304 309 307 308 310 311 317 320 320 317 316 317
227 226 231 233 232 217 235 257 248 254 232 223 234 237 241 251 260 259 265 271 274 275 280 279 281 291 300 301 302 308 312 316 319 320 319 316 316 316
219 219 216 214 219 234 251 252 253 241 237 234 242 244 240 251 264 269 265 265 264 267 272 274 285 289 291 298 303 307 313 316 319 319 317 315 317 319
221 221 222 226 237 245 246 243 241 236 234 236 242 245 248 260 266 267 264 258 268 272 267 277 285 290 295 298 302 312 319 317 319 317 314 316 318 320
227 230 228 232 236 236 237 238 238 237 237 239 241 242 247 258 266 263 264 263 278 279 272 280 288 292 295 300 307 317 318 316 316 314 316 319 321 323
229 230 230 232 232 232 232 235 235 236 238 240 242 245 250 254 257 259 263 267 274 272 278 281 286 291 300 304 310 316 314 311 312 314 319 320 322 326
231 231 228 229 231 233 234 234 236 234 236 241 244 247 249 254 258 261 264 267 270 270 280 283 290 297 302 305 311 313 309 310 309 315 318 320 324 330
231 231 234 236 231 231 231 233 229 230 234 238 240 246 251 255 259 263 265 265 270 271 274 281 287 294 300 306 309 305 305 305 312 316 320 323 328 332
223 231 232 228 227 229 229 227 230 229 233 238 240 247 250 253 256 260 265 268 270 270 277 282 288 296 298 302 300 303 306 309 314 316 321 326 332 335
221 221 224 225 223 223 225 225 225 228 231 237 239 244 247 250 254 257 266 269 274 277 277 279 292 294 297 296 298 298 303 314 315 319 323 329 334 335
222 220 219 222 221 219 223 225 226 232 235 236 239 245 247 251 257 262 269 272 274 275 274 281 289 294 291 294 294 299 307 311 317 321 326 334 336 337
225 222 220 220 218 219 224 228 231 232 234 236 240 243 246 253 261 264 267 268 273 274 271 280 288 287 288 290 293 302 309 316 321 326 333 336 338 338
219 222 218 220 219 222 224 228 232 230 232 236 238 244 248 254 258 260 266 272 273 268 269 278 281 281 285 285 294 304 315 323 325 329 336 338 338 340
217 219 219 224 226 225 224 226 224 226 231 234 237 242 246 250 255 261 267 265 260 268 268 271 270 273 277 284 292 306 317 323 327 334 338 339 339 342
220 218 222 221 221 220 221 221 224 225 230 233 238 241 244 252 258 260 263 252 258 266 263 263 264 268 271 281 297 307 314 324 332 338 340 341 343 346
219 217 213 215 220 216 216 218 221 226 232 235 238 240 245 251 254 260 250 252 259 260 254 255 257 255 264 277 291 304 320 327 333 334 338 340 345 346
217 219 217 218 212 215 221 220 223 225 229 233 237 243 246 251 256 252 251 250 253 249 249 250 245 247 256 273 288 306 318 325 329 332 336 341 342 344
211 214 214 215 217 220 221 221 222 223 228 237 238 240 244 246 247 247 243 246 246 243 245 240 233 240 257 275 298 309 320 327 330 332 339 342 346 343